Regional Weather Roundup
Issued by NWS

Home | Current Version | Previous Version | Text Only | Print | Product List | Glossary On
Versions: 1 2 3 4 5 6 7 8 9 10 11 12 13 14 15 16 17 18 19 20 21 22 23 24 25 26 27 28 29 30 31 32 33 34 35 36 37 38 39 40 41 42 43 44 45 46 47 48 49 50
000
ASPQ40 PGUM 251912
RWRPQ
WEATHER ROUNDUP FOR THE MARIANAS AND MICRONESIA
NATIONAL WEATHER SERVICE TIYAN GU
500 AM CHST SAT JUL 26 2014

GUZ001>004-252000-
MARIANA ISLANDS-

CITY           SKY/WX    TMP DP  RH WIND       PRES   REMARKS
GUAM AIRPORT   CLEAR     75  75 100 CALM      29.81F
ANDERSEN AFB   CLEAR     75  73  94 SW8       29.81S
ROTA AIRPORT   NOT AVBL
TINIAN AP      NOT AVBL
SAIPAN AP      LGT RAIN  79  77  94 E7        29.80F

$$

PMZ161-252000-
REPUBLIC OF PALAU-

CITY           SKY/WX    TMP DP  RH WIND       PRES   REMARKS
KOROR AP       LGT RAIN  81  77  89 W18G28    29.69F
KOROR WSO      LGT RAIN  79  72  78 W20       29.69F

$$

PMZ171>174-252000-
FEDERATED STATES OF MICRONESIA-

CITY           SKY/WX    TMP DP  RH WIND       PRES   REMARKS
YAP AIRPORT    CLOUDY    82  77  83 S14       29.70S HX  91
CHUUK AP       CLOUDY    82  77  83 W10       29.83R HX  91
POHNPEI AP     NOT AVBL
POHNPEI WSO    CLOUDY    77  75  94 S7        29.85R
KOSRAE AP      NOT AVBL

$$

PMZ181-252000-
REPUBLIC OF THE MARSHALL ISLANDS-

CITY           SKY/WX    TMP DP  RH WIND       PRES   REMARKS
KWAJALEIN AP   MOCLDY    81  75  83 E5        29.86R
MAJURO AP      NOT AVBL
MAJURO WSO     MOCLDY    82  77  83 SW10      29.84R HX  91

$$



USA.gov is the U.S. government's official web portal to all federal, state and local government web resources and services.